STARLINK-1171, 45062

Orbit data source: Space-Track

STARLINK-1171, 45062 is a payload satellite owned by SpaceX/Seattle (US) in LEO that was launched on Wed, 29 Jan 2020 UTC via an FALCON 9 launch vehicle from the Air Force Eastern Test Range (AFETR). Payload-class satellites include a variety of spacecraft equipped with specific instruments for various scientific and technological missions. These include communications satellites like Starlink; space stations such as the ISS; scientific satellites like the Hubble; Earth observation satellites from companies like Planet Labs, Umbra, and HawkEye 360; GPS; miniature CubeSats for education and research; and military/defense satellites.

Loading next visibility...
Identifier
45062, 2020-006U
Orbit
LEO
Country
Flag of USUS
Related business
Manufacturer
SpaceX/Seattle
Mission
Operational Commercial Communications
Bus & Motor
STARLINK, Unknown motor
Mass
260 kg wet, ~248 kg dry
Launch date (UTC)
2020-01-29 (6 years ago)
Launch vehicle
FALCON 9
Launch site
Air Force Eastern Test Range (AFETR)
Object type
Payload
Rocket body
Debris
Shape & HBR
Box + 1 Pan, 10.1 m
Radar Cross Section
13.562 m², Large (>1 m²)

Expand to show TLE details & history
Last TLE update: 16 hours ago

TLE from 16 hours ago
0 STARLINK-1171
1 45062U 20006U   25291.33336806  .01760220  00000-0  73490-1 0  9998
2 45062  53.0538 205.3152 0001642  67.3670 280.1003 15.20068200  5859
Epoch: 2025-10-18T08:00Z
TLE epoch observation values (Epoch: 2025-10-18T08:00:03.000Z)
Latitude
-10.139°
Longitude
50.55025°
Altitude
508.19 km
Speed
7.611 km/s
True Right ascension
13h 10m 30s
True Declination
-10° 04' 39"
Sunlit
Object was in daylight at epoch
Visualization orbit readout
Latitude
Unknown
Longitude
Unknown
Altitude
Unknown
Speed
Unknown
Apparent Right ascension
Unknown
Apparent Declination
Unknown
Sunlit
N/A
Visualization observer readout
Local Sidereal Time
18:55:11
Azimuth
Unknown
Elevation
Unknown
Doppler factor
Unknown
Orbital elements
Apogee altitude
507.037 km
Perigee altitude
504.777 km
Semi-major axis
6,884.044 km
Eccentricity
0.00016
Inclination
53.0538°
RAAN
205.3152°
Arg. of periapsis
67.367°
True anomaly
280.08178°
Mean anomaly
280.1003°
Eccentric anomaly
280.09104°
Mean motion
3.79995 °/min
Orbital period
94.74 mins
BSTAR
0.07349
Loading maneuver chart data...
Computing Atmospheric mass density...

Documentation

Showing up to 5 results
|